Location: Tierz
(42.1336°N, 0.3549°W)
Time: 23:56:57
(UTC+00:00)

Cosmos 1656 - Pass Details

Date: 29 October 2020
Orbit: 797 x 851 km, 71.1° (Epoch: 05 December)

Event Time Altitude Azimuth Distance (km) Brightness Sun altitude
Rises 18:14:04 0° 212° (SSW) 3,332 7.4 -14.5°
Reaches altitude 10° 18:16:30 10° 216° (SW) 2,412 6.7 -15.0°
Maximum altitude 18:21:59 62° 297° (WNW) 933 4.2 -16.0°
Drops below altitude 10° 18:27:34 10° 18° (NNE) 2,463 5.9 -17.0°
Sets 18:30:05 0° 22° (NNE) 3,408 6.6 -17.5°
